| time (UTC) | temp F | wind direction | speed MPH | gust MPH | rain 1hr in | rain 24hr in | rain mn in | humidity % | barometer mb |
| 20260904210020 | 72 | 334 | 1.0 | 6.0 | 0.00 | 0.36 | 0.00 | 67 | 1008.7 |
| 20260904204520 | 72 | 321 | 3.0 | 6.0 | 0.00 | 0.36 | 0.00 | 68 | 1008.8 |
| 20260904203029 | 73 | 339 | 5.0 | 14.0 | 0.00 | 0.36 | 0.00 | 68 | 1008.9 |
| 20260904201518 | 73 | 339 | 5.0 | 11.0 | 0.00 | 0.36 | 0.00 | 68 | 1009.0 |
| 20260904200018 | 73 | 353 | 7.0 | 14.0 | 0.00 | 0.36 | 0.00 | 67 | 1009.0 |
| 20260904194517 | 73 | 318 | 4.0 | 9.0 | 0.00 | 0.36 | 0.00 | 68 | 1009.2 |
| 20260904193020 | 73 | 339 | 4.0 | 11.0 | 0.00 | 0.36 | 0.00 | 68 | 1009.4 |
| 20260904191516 | 73 | 323 | 5.0 | 10.0 | 0.00 | 0.36 | 0.00 | 68 | 1009.6 |
| 20260904190016 | 74 | 339 | 5.0 | 13.0 | 0.00 | 0.36 | 0.00 | 67 | 1009.6 |
| 20260904184521 | 74 | 339 | 8.0 | 15.0 | 0.00 | 0.36 | 0.00 | 67 | 1009.7 |
| 20260904183008 | 74 | 318 | 4.0 | 17.0 | 0.00 | 0.36 | 0.00 | 68 | 1009.7 |
| 20260904181517 | 74 | 310 | 10.0 | 13.0 | 0.00 | 0.36 | 0.00 | 67 | 1009.9 |
| 20260904180001 | 74 | 321 | 6.0 | 14.0 | 0.00 | 0.36 | 0.00 | 66 | 1009.9 |
| 20260904174558 | 73 | 312 | 7.0 | 13.0 | 0.00 | 0.36 | 0.00 | 67 | 1010.0 |
| 20260904173054 | 73 | 319 | 8.0 | 11.0 | 0.00 | 0.36 | 0.00 | 67 | 1010.3 |
| 20260904171613 | 73 | 334 | 6.0 | 13.0 | 0.00 | 0.36 | 0.00 | 66 | 1010.4 |
| 20260904170044 | 73 | 339 | 4.0 | 10.0 | 0.00 | 0.36 | 0.00 | 67 | 1010.4 |
| 20260904164540 | 74 | 339 | 7.0 | 12.0 | 0.00 | 0.36 | 0.00 | 66 | 1010.6 |
| 20260904163037 | 74 | 316 | 6.0 | 14.0 | 0.00 | 0.36 | 0.00 | 64 | 1010.6 |
| 20260904161534 | 73 | 358 | 2.0 | 10.0 | 0.00 | 0.36 | 0.00 | 64 | 1010.5 |
| 20260904160035 | 73 | 319 | 2.0 | 10.0 | 0.00 | 0.36 | 0.00 | 63 | 1010.4 |
| 20260904154538 | 73 | 339 | 2.0 | 9.0 | 0.00 | 0.36 | 0.00 | 60 | 1010.5 |
| 20260904153032 | 72 | 310 | 3.0 | 9.0 | 0.00 | 0.36 | 0.00 | 56 | 1010.7 |
| 20260904151524 | 71 | 334 | 5.0 | 9.0 | 0.00 | 0.36 | 0.00 | 58 | 1010.8 |
| 20260904150022 | 71 | 327 | 3.0 | 10.0 | 0.00 | 0.36 | 0.00 | 58 | 1010.4 |
| 20260904144520 | 70 | 325 | 3.0 | 9.0 | 0.00 | 0.36 | 0.00 | 53 | 1010.2 |
| 20260904143019 | 70 | 310 | 1.0 | 8.0 | 0.00 | 0.36 | 0.00 | 49 | 1010.2 |
| 20260904141514 | 69 | 300 | 4.0 | 9.0 | 0.00 | 0.36 | 0.00 | 42 | 1010.4 |
| 20260904140014 | 69 | 314 | 4.0 | 10.0 | 0.00 | 0.36 | 0.00 | 36 | 1010.5 |
| 20260904134509 | 67 | 313 | 3.0 | 9.0 | 0.00 | 0.36 | 0.00 | 35 | 1010.7 |
| 20260904133006 | 67 | 308 | 5.0 | 9.0 | 0.00 | 0.36 | 0.00 | 34 | 1010.8 |
| 20260904131506 | 66 | 313 | 5.0 | 8.0 | 0.00 | 0.36 | 0.00 | 34 | 1010.8 |
| 20260904130003 | 66 | 310 | 4.0 | 9.0 | 0.00 | 0.36 | 0.00 | 34 | 1010.8 |
| 20260904124502 | 65 | 314 | 1.0 | 5.0 | 0.00 | 0.36 | 0.00 | 34 | 1010.7 |
| 20260904123100 | 65 | 316 | 2.0 | 4.0 | 0.00 | 0.36 | 0.00 | 34 | 1010.8 |
| 20260904121559 | 64 | 316 | 1.0 | 3.0 | 0.00 | 0.36 | 0.00 | 34 | 1010.5 |
| 20260904114603 | 64 | 316 | 2.0 | 4.0 | 0.00 | 0.36 | 0.00 | 35 | 1010.4 |
| 20260904113056 | 64 | 317 | 2.0 | 4.0 | 0.00 | 0.36 | 0.00 | 35 | 1010.5 |
| 20260904111556 | 64 | 317 | 0.0 | 3.0 | 0.00 | 0.36 | 0.00 | 35 | 1010.3 |
| 20260904110054 | 64 | 317 | 1.0 | 5.0 | 0.00 | 0.36 | 0.00 | 35 | 1010.2 |
| 20260904104610 | 64 | 316 | 1.0 | 6.0 | 0.00 | 0.36 | 0.00 | 35 | 1010.3 |
| 20260904103058 | 64 | 317 | 3.0 | 6.0 | 0.00 | 0.36 | 0.00 | 35 | 1010.1 |
| 20260904101551 | 64 | 317 | 2.0 | 4.0 | 0.00 | 0.36 | 0.00 | 35 | 1009.9 |
| 20260904100107 | 64 | 317 | 3.0 | 6.0 | 0.00 | 0.36 | 0.00 | 35 | 1009.9 |
| 20260904094558 | 64 | 317 | 3.0 | 8.0 | 0.00 | 0.36 | 0.00 | 35 | 1009.9 |
| 20260904093047 | 64 | 310 | 4.0 | 8.0 | 0.00 | 0.36 | 0.00 | 35 | 1009.8 |
| 20260904091546 | 65 | 317 | 3.0 | 8.0 | 0.00 | 0.36 | 0.00 | 35 | 1009.8 |
| 20260904090043 | 65 | 322 | 4.0 | 9.0 | 0.00 | 0.36 | 0.00 | 34 | 1009.7 |
| 20260904084543 | 65 | 334 | 4.0 | 11.0 | 0.00 | 0.36 | 0.00 | 34 | 1009.7 |
| 20260904083039 | 65 | 330 | 4.0 | 8.0 | 0.00 | 0.36 | 0.00 | 34 | 1009.5 |
| 20260904081536 | 66 | 344 | 3.0 | 10.0 | 0.00 | 0.36 | 0.00 | 33 | 1009.2 |
| 20260904080036 | 66 | 334 | 3.0 | 9.0 | 0.00 | 0.36 | 0.00 | 33 | 1009.0 |
| 20260904074533 | 67 | 334 | 3.0 | 8.0 | 0.00 | 0.36 | 0.00 | 33 | 1008.9 |
| 20260904073035 | 67 | 329 | 3.0 | 5.0 | 0.00 | 0.36 | 0.00 | 33 | 1009.0 |
| 20260904071531 | 67 | 329 | 2.0 | 5.0 | 0.00 | 0.36 | 0.00 | 33 | 1008.9 |
| 20260904070038 | 68 | 328 | 3.0 | 10.0 | 0.00 | 0.36 | 0.00 | 33 | 1008.8 |
| 20260904064525 | 69 | 319 | 4.0 | 8.0 | 0.00 | 0.36 | 0.00 | 33 | 1008.7 |
| 20260904063024 | 69 | 310 | 4.0 | 6.0 | 0.00 | 0.36 | 0.00 | 33 | 1008.6 |
| 20260904061528 | 69 | 306 | 2.0 | 5.0 | 0.00 | 0.36 | 0.00 | 33 | 1008.8 |
| 20260904060026 | 69 | 305 | 2.0 | 4.0 | 0.00 | 0.36 | 0.00 | 33 | 1008.9 |
| 20260904054522 | 70 | 302 | 2.0 | 4.0 | 0.00 | 0.36 | 0.00 | 33 | 1009.2 |
| 20260904053025 | 70 | 305 | 1.0 | 5.0 | 0.00 | 0.36 | 0.00 | 32 | 1009.3 |
| 20260904051514 | 70 | 305 | 2.0 | 4.0 | 0.00 | 0.36 | 0.00 | 32 | 1009.4 |
| 20260904050026 | 70 | 305 | 2.0 | 5.0 | 0.00 | 0.36 | 0.00 | 32 | 1009.5 |
| 20260904044519 | 70 | 301 | 3.0 | 6.0 | 0.00 | 0.36 | 0.00 | 32 | 1009.5 |
| 20260904043012 | 70 | 296 | 1.0 | 4.0 | 0.00 | 0.36 | 0.00 | 32 | 1009.4 |
| 20260904041511 | 70 | 296 | 1.0 | 5.0 | 0.00 | 0.36 | 0.00 | 32 | 1009.4 |
| 20260904040009 | 70 | 296 | 1.0 | 4.0 | 0.00 | 0.36 | 0.00 | 32 | 1009.4 |
| 20260904034505 | 70 | 296 | 1.0 | 3.0 | 0.00 | 0.36 | 0.36 | 32 | 1009.4 |
| 20260904033107 | 70 | 296 | 1.0 | 3.0 | 0.02 | 0.36 | 0.36 | 32 | 1009.3 |
| 20260904031556 | 70 | 296 | 0.0 | 2.0 | 0.03 | 0.36 | 0.36 | 32 | 1009.3 |
| 20260904030052 | 70 | 296 | 0.0 | 1.0 | 0.04 | 0.36 | 0.36 | 33 | 1009.1 |
| 20260904024554 | 71 | 296 | 0.0 | 2.0 | 0.09 | 0.46 | 0.36 | 33 | 1009.2 |
| 20260904023052 | 71 | 296 | 1.0 | 6.0 | 0.20 | 0.44 | 0.34 | 33 | 1009.1 |
| 20260904021539 | 71 | 294 | 1.0 | 4.0 | 0.28 | 0.43 | 0.33 | 33 | 1009.1 |
| 20260904020038 | 71 | 293 | 2.0 | 9.0 | 0.28 | 0.42 | 0.32 | 33 | 1009.4 |
| 20260904014530 | 72 | 300 | 5.0 | 10.0 | 0.25 | 0.37 | 0.26 | 34 | 1008.9 |
| 20260904013025 | 72 | 339 | 4.0 | 10.0 | 0.14 | 0.25 | 0.14 | 35 | 1008.7 |
| 20260904011521 | 73 | 344 | 2.0 | 4.0 | 0.04 | 0.15 | 0.04 | 35 | 1008.8 |
| 20260904010017 | 74 | 344 | 3.0 | 6.0 | 0.03 | 0.14 | 0.03 | 36 | 1008.5 |
| 20260904004514 | 74 | 350 | 7.0 | 11.0 | 0.01 | 0.48 | 0.01 | 37 | 1008.5 |
| 20260904003009 | 75 | 339 | 4.0 | 8.0 | 0.00 | 0.47 | 0.00 | 38 | 1008.8 |
| 20260904001504 | 75 | 296 | 0.0 | 4.0 | 0.00 | 0.47 | 0.00 | 40 | 1008.5 |
| 20260904000116 | 75 | 300 | 1.0 | 4.0 | 0.00 | 0.47 | 0.00 | 41 | 1008.6 |
| 20260903234556 | 75 | 300 | 2.0 | 5.0 | 0.00 | 0.47 | 0.00 | 44 | 1008.7 |
| 20260903233117 | 75 | 296 | 3.0 | 8.0 | 0.00 | 0.47 | 0.00 | 46 | 1008.7 |
| 20260903231549 | 75 | 306 | 4.0 | 8.0 | 0.00 | 0.47 | 0.00 | 48 | 1008.8 |
| 20260903230104 | 76 | 309 | 4.0 | 8.0 | 0.00 | 0.47 | 0.00 | 50 | 1008.8 |
| 20260903224543 | 76 | 315 | 4.0 | 8.0 | 0.00 | 0.54 | 0.00 | 50 | 1008.8 |
| 20260903223058 | 77 | 319 | 2.0 | 6.0 | 0.00 | 0.54 | 0.00 | 51 | 1008.4 |
| 20260903221531 | 77 | 316 | 4.0 | 8.0 | 0.00 | 0.54 | 0.00 | 53 | 1008.3 |
| 20260903220026 | 77 | 310 | 4.0 | 10.0 | 0.00 | 0.54 | 0.00 | 55 | 1008.0 |
| 20260903214521 | 78 | 312 | 4.0 | 9.0 | 0.00 | 0.54 | 0.00 | 54 | 1008.1 |
| 20260903213030 | 78 | 339 | 3.0 | 8.0 | 0.00 | 0.54 | 0.00 | 52 | 1008.3 |
| 20260903211513 | 78 | 313 | 4.0 | 10.0 | 0.00 | 0.54 | 0.00 | 53 | 1008.0 |